Weather History for San Angelo, TX

Change the Weather History Date:

Sunday, May 19, 2013

  Actual Average Record
Temperature  
Mean Temperature 87 °F 75 °F  
Max Temperature 101 °F 88 °F 105 °F (2003)
Min Temperature 72 °F 63 °F 46 °F (1986)
Degree Days  
Heating Degree Days 0 0  
Month to date heating degree days 32 8  
Since 1 July heating degree days 1919 2314  
Cooling Degree Days 22 11  
Month to date cooling degree days 160 161  
Year to date cooling degree days 409 317  
Growing Degree Days 36 (Base 50)    
Moisture  
Dew Point 49 °F    
Average Humidity 40    
Maximum Humidity 73    
Minimum Humidity 7    
Precipitation  
Precipitation 0.00 in 0.09 in 1.94 in (1961)
Month to date precipitation 1.42 1.50  
Year to date precipitation 4.23 6.70  
Sea Level Pressure  
Sea Level Pressure 29.68 in    
Wind  
Wind Speed 11 mph (SW)    
Max Wind Speed 28 mph    
Max Gust Speed 39 mph    
Visibility 10 miles    
Events      
T = Trace of Precipitation, MM = Missing Value Source: NWS Daily Summary

Daily Weather History Graph

Daily Weather History Graph

Search for Another Location

Airport:

Trip Planner

Search our weather history database for the weather conditions in past years. The results will help you decide how hot, cold, wet, or windy it might be!

Date:

Astronomy

May. 19, 2013 Rise Set
Actual Time 6:43 AM CDT 8:33 PM CDT
Civil Twilight 6:16 AM CDT 9:00 PM CDT
Nautical Twilight 5:44 AM CDT 9:33 PM CDT
Astronomical Twilight 5:09 AM CDT 10:07 PM CDT
Moon 3:01 PM CDT (5/19) 2:44 AM CDT (5/19)
Length of Visible Light 14h 44m
Length of Day
13h 50m
Waxing Gibbous, 65% of the Moon is Illuminated
May 19
Waxing Gibbous
May 24
Full
May 31
Last Quarter
Jun 8
New
Jun 16
First Quarter

Hourly Weather History & Observations

Time (CDT) Temp. Heat Index Dew Point Humidity Pressure Visibility Wind Dir Wind Speed Gust Speed Precip Events Conditions
12:51 AM 82.0 °F 83.4 °F 64.0 °F 54% 29.68 in 10.0 mi South 19.6 mph 34.5 mph N/A   Clear
1:51 AM 80.1 °F 81.7 °F 64.0 °F 58% 29.68 in 10.0 mi South 19.6 mph 31.1 mph N/A   Clear
3:51 AM 77.0 °F - 64.0 °F 64% 29.70 in 10.0 mi SW 8.1 mph - N/A   Clear
4:51 AM 75.0 °F - 63.0 °F 66% 29.70 in 10.0 mi SSW 10.4 mph - N/A   Clear
5:51 AM 73.9 °F - 63.0 °F 68% 29.73 in 10.0 mi WNW 3.5 mph - N/A   Clear
6:51 AM 72.0 °F - 63.0 °F 73% 29.73 in 10.0 mi Calm Calm - N/A   Clear
7:51 AM 73.9 °F - 64.0 °F 71% 29.73 in 10.0 mi SSW 6.9 mph - N/A   Clear
8:51 AM 79.0 °F - 64.0 °F 60% 29.73 in 10.0 mi SSW 12.7 mph - N/A   Clear
9:51 AM 82.0 °F 83.4 °F 64.0 °F 54% 29.74 in 10.0 mi SSW 17.3 mph - N/A   Clear
10:51 AM 87.1 °F 87.5 °F 62.1 °F 43% 29.73 in 10.0 mi SW 17.3 mph - N/A   Clear
11:51 AM 91.0 °F 89.7 °F 57.0 °F 32% 29.72 in 10.0 mi SW 12.7 mph 23.0 mph N/A   Clear
12:51 PM 96.1 °F - 46.0 °F 18% 29.70 in 10.0 mi SW 15.0 mph 23.0 mph N/A   Clear
1:51 PM 98.1 °F - 30.9 °F 9% 29.67 in 10.0 mi WSW 12.7 mph 21.9 mph N/A   Clear
2:51 PM 99.0 °F - 28.0 °F 8% 29.65 in 10.0 mi West 17.3 mph 23.0 mph N/A   Clear
3:51 PM 100.0 °F - 28.0 °F 8% 29.64 in 10.0 mi SW 15.0 mph 19.6 mph N/A   Clear
4:51 PM 100.9 °F - 28.0 °F 8% 29.61 in 10.0 mi SW 17.3 mph 23.0 mph N/A   Clear
5:51 PM 100.0 °F - 26.1 °F 7% 29.60 in 10.0 mi West 17.3 mph 23.0 mph N/A   Clear
6:51 PM 98.1 °F - 27.0 °F 8% 29.60 in 10.0 mi West 11.5 mph - N/A   Clear
7:51 PM 95.0 °F - 30.0 °F 10% 29.60 in 10.0 mi West 6.9 mph - N/A   Clear
8:51 PM 88.0 °F - 32.0 °F 14% 29.62 in 10.0 mi South 6.9 mph - N/A   Clear
9:51 PM 84.0 °F - 36.0 °F 18% 29.64 in 10.0 mi South 3.5 mph - N/A   Clear
10:51 PM 82.9 °F - 50.0 °F 32% 29.66 in 10.0 mi South 10.4 mph - N/A   Clear
11:51 PM 84.0 °F 84.0 °F 60.1 °F 44% 29.66 in 10.0 mi South 9.2 mph - N/A   Clear